When you browse on this site, cookies collect data to enhance your experience and personalize the content and advertising you see.
Visit our Privacy Policy to learn more. By continuing to use the site, you agree to this use of cookies and data.
  • In United Kingdom
  • List of Countries
  • For 7 days
  • Water Temperature
  • Satellite Maps
  • Weather Map
  • Weather Widgets
  • user-avatar
    Login

    Hourly Weather Moquegua

    Today, 21 July, Sunday

    Time Temperature Precipitation Wind Pressure Humidity
    00:00 +15°C° 0 mm 0 mps 642 mmHg 55%
    01:00 +14°C° 0 mm 0 mps 642 mmHg 57%
    02:00 +14°C° 0 mm 0 mps 642 mmHg 56%
    03:00 +14°C° 0 mm 0 mps 641 mmHg 54%
    04:00 +14°C° 0 mm 0 mps 641 mmHg 53%
    05:00 +15°C° 0 mm 0 mps 642 mmHg 48%
    06:00 +16°C° 0 mm 0 mps 642 mmHg 43%
    07:00 +17°C° 0 mm 0 mps 643 mmHg 38%
    08:00 +21°C° 0 mm 1 mps 644 mmHg 33%
    09:00 +24°C° 0 mm 2 mps 645 mmHg 29%
    10:00 +26°C° 0 mm 2 mps 646 mmHg 24%
    11:00 +26°C° 0 mm 3 mps 645 mmHg 24%
    12:00 +27°C° 0 mm 3 mps 645 mmHg 23%
    13:00 +27°C° 0 mm 4 mps 644 mmHg 23%
    14:00 +26°C° 0 mm 3 mps 644 mmHg 25%
    15:00 +26°C° 0 mm 3 mps 643 mmHg 28%
    16:00 +25°C° 0 mm 3 mps 643 mmHg 31%
    17:00 +21°C° 0 mm 2 mps 642 mmHg 40%
    18:00 +20°C° 0 mm 1 mps 642 mmHg 50%
    19:00 +15°C° 0 mm 0 mps 642 mmHg 59%
    20:00 +15°C° 0 mm 0 mps 642 mmHg 59%
    21:00 +14°C° 0 mm 0 mps 642 mmHg 59%
    22:00 +14°C° 0 mm 0 mps 642 mmHg 59%
    23:00 +14°C° 0 mm 0 mps 642 mmHg 61%

    Tomorrow, 22 July, Monday

    Time Temperature Precipitation Wind Pressure Humidity
    00:00 +13°C° 0 mm 0 mps 642 mmHg 64%
    01:00 +13°C° 0 mm 0 mps 641 mmHg 67%
    02:00 +13°C° 0 mm 0 mps 641 mmHg 66%
    03:00 +12°C° 0 mm 0 mps 641 mmHg 66%
    04:00 +12°C° 0 mm 0 mps 640 mmHg 66%
    05:00 +13°C° 0 mm 0 mps 641 mmHg 62%
    06:00 +14°C° 0 mm 0 mps 642 mmHg 59%
    07:00 +15°C° 0 mm 0 mps 643 mmHg 55%
    08:00 +19°C° 0 mm 1 mps 643 mmHg 49%
    09:00 +20°C° 0 mm 2 mps 644 mmHg 42%
    10:00 +23°C° 0 mm 2 mps 644 mmHg 36%
    11:00 +22°C° 0 mm 3 mps 644 mmHg 36%
    12:00 +24°C° 0 mm 3 mps 644 mmHg 35%
    13:00 +23°C° 0 mm 4 mps 643 mmHg 35%
    14:00 +22°C° 0 mm 3 mps 643 mmHg 41%
    15:00 +21°C° 0 mm 3 mps 642 mmHg 46%
    16:00 +19°C° 0 mm 3 mps 642 mmHg 52%
    17:00 +18°C° 0 mm 2 mps 642 mmHg 59%
    18:00 +16°C° 0 mm 1 mps 642 mmHg 66%
    19:00 +14°C° 0 mm 1 mps 642 mmHg 73%
    20:00 +14°C° 0 mm 1 mps 642 mmHg 72%
    21:00 +13°C° 0 mm 0 mps 642 mmHg 71%
    22:00 +13°C° 0 mm 0 mps 643 mmHg 71%
    23:00 +13°C° 0 mm 0 mps 642 mmHg 71%

    Day after tomorrow, 23 July, Tuesday

    Time Temperature Precipitation Wind Pressure Humidity
    00:00 +13°C° 0 mm 0 mps 642 mmHg 70%
    01:00 +13°C° 0 mm 0 mps 642 mmHg 70%
    02:00 +12°C° 0 mm 0 mps 642 mmHg 70%
    03:00 +12°C° 0 mm 0 mps 641 mmHg 70%
    04:00 +12°C° 0 mm 0 mps 641 mmHg 69%
    05:00 +12°C° 0 mm 0 mps 642 mmHg 68%
    06:00 +13°C° 0 mm 0 mps 642 mmHg 67%
    07:00 +13°C° 0 mm 0 mps 643 mmHg 65%
    08:00 +15°C° 0 mm 1 mps 643 mmHg 62%
    09:00 +16°C° 0 mm 2 mps 643 mmHg 59%
    10:00 +18°C° 0 mm 2 mps 643 mmHg 56%
    11:00 +18°C° 0 mm 3 mps 643 mmHg 54%
    12:00 +19°C° 0 mm 3 mps 642 mmHg 52%
    13:00 +19°C° 0 mm 3 mps 642 mmHg 49%
    14:00 +18°C° 0 mm 3 mps 641 mmHg 52%
    15:00 +18°C° 0 mm 3 mps 641 mmHg 54%
    16:00 +17°C° 0 mm 3 mps 641 mmHg 57%
    17:00 +16°C° 0 mm 2 mps 641 mmHg 63%
    18:00 +15°C° 0 mm 2 mps 641 mmHg 69%
    19:00 +13°C° 0 mm 1 mps 641 mmHg 74%
    20:00 +13°C° 0 mm 1 mps 641 mmHg 74%
    21:00 +13°C° 0 mm 1 mps 641 mmHg 74%
    22:00 +11°C° 0 mm 0 mps 641 mmHg 73%
    23:00 +12°C° 0 mm 1 mps 641 mmHg 73%

    24 July, Wednesday

    Time Temperature Precipitation Wind Pressure Humidity
    00:00 +12°C° 0 mm 1 mps 641 mmHg 72%
    01:00 +12°C° 0 mm 1 mps 641 mmHg 71%
    02:00 +12°C° 0 mm 1 mps 641 mmHg 72%
    03:00 +11°C° 0 mm 1 mps 640 mmHg 72%
    04:00 +11°C° 0 mm 1 mps 640 mmHg 72%
    05:00 +12°C° 0 mm 1 mps 641 mmHg 70%
    06:00 +11°C° 0 mm 0 mps 641 mmHg 69%
    07:00 +12°C° 0 mm 0 mps 642 mmHg 67%
    08:00 +14°C° 0 mm 1 mps 642 mmHg 59%
    09:00 +16°C° 0 mm 2 mps 642 mmHg 51%
    10:00 +18°C° 0 mm 2 mps 643 mmHg 44%
    11:00 +19°C° 0 mm 3 mps 643 mmHg 40%
    12:00 +20°C° 0 mm 3 mps 642 mmHg 35%
    13:00 +21°C° 0 mm 3 mps 642 mmHg 31%
    14:00 +20°C° 0 mm 3 mps 642 mmHg 34%
    15:00 +20°C° 0 mm 3 mps 642 mmHg 38%
    16:00 +19°C° 0 mm 3 mps 642 mmHg 41%
    17:00 +17°C° 0 mm 2 mps 642 mmHg 49%
    18:00 +15°C° 0 mm 2 mps 642 mmHg 56%
    19:00 +13°C° 0 mm 1 mps 642 mmHg 63%
    20:00 +13°C° 0 mm 1 mps 642 mmHg 63%
    21:00 +13°C° 0 mm 1 mps 642 mmHg 63%
    22:00 +12°C° 0 mm 1 mps 642 mmHg 63%
    23:00 +12°C° 0 mm 1 mps 642 mmHg 63%

    25 July, Thursday

    Time Temperature Precipitation Wind Pressure Humidity
    00:00 +11°C° 0 mm 1 mps 642 mmHg 63%
    01:00 +10°C° 0 mm 0 mps 641 mmHg 63%
    02:00 +9°C° 0 mm 0 mps 641 mmHg 64%
    03:00 +9°C° 0 mm 0 mps 641 mmHg 64%
    04:00 +9°C° 0 mm 0 mps 640 mmHg 65%
    05:00 +10°C° 0 mm 0 mps 641 mmHg 57%
    06:00 +12°C° 0 mm 0 mps 642 mmHg 50%
    07:00 +13°C° 0 mm 0 mps 643 mmHg 42%
    08:00 +18°C° 0 mm 1 mps 644 mmHg 36%
    09:00 +20°C° 0 mm 2 mps 644 mmHg 29%
    10:00 +24°C° 0 mm 3 mps 645 mmHg 22%
    11:00 +25°C° 0 mm 3 mps 645 mmHg 21%
    12:00 +25°C° 0 mm 3 mps 645 mmHg 21%
    13:00 +26°C° 0 mm 4 mps 644 mmHg 20%
    14:00 +25°C° 0 mm 3 mps 644 mmHg 24%
    15:00 +24°C° 0 mm 3 mps 644 mmHg 27%
    16:00 +22°C° 0 mm 3 mps 643 mmHg 31%
    17:00 +19°C° 0 mm 2 mps 643 mmHg 40%
    18:00 +18°C° 0 mm 1 mps 642 mmHg 49%
    19:00 +13°C° 0 mm 0 mps 642 mmHg 58%
    20:00 +13°C° 0 mm 0 mps 642 mmHg 58%
    21:00 +13°C° 0 mm 1 mps 642 mmHg 57%
    22:00 +13°C° 0 mm 1 mps 643 mmHg 57%
    23:00 +13°C° 0 mm 1 mps 642 mmHg 56%

    26 July, Friday

    Time Temperature Precipitation Wind Pressure Humidity
    00:00 +11°C° 0 mm 0 mps 642 mmHg 54%
    01:00 +11°C° 0 mm 0 mps 641 mmHg 53%
    02:00 +10°C° 0 mm 0 mps 641 mmHg 53%
    03:00 +10°C° 0 mm 0 mps 641 mmHg 54%
    04:00 +10°C° 0 mm 0 mps 640 mmHg 54%
    05:00 +11°C° 0 mm 0 mps 641 mmHg 46%
    06:00 +12°C° 0 mm 0 mps 642 mmHg 39%
    07:00 +13°C° 0 mm 0 mps 642 mmHg 31%
    08:00 +19°C° 0 mm 1 mps 643 mmHg 26%
    09:00 +21°C° 0 mm 2 mps 644 mmHg 22%
    10:00 +25°C° 0 mm 3 mps 645 mmHg 18%
    11:00 +25°C° 0 mm 3 mps 645 mmHg 18%
    12:00 +26°C° 0 mm 3 mps 644 mmHg 18%
    13:00 +27°C° 0 mm 4 mps 644 mmHg 19%
    14:00 +26°C° 0 mm 3 mps 643 mmHg 21%
    15:00 +25°C° 0 mm 3 mps 643 mmHg 24%
    16:00 +24°C° 0 mm 3 mps 643 mmHg 27%
    17:00 +20°C° 0 mm 2 mps 642 mmHg 36%
    18:00 +18°C° 0 mm 1 mps 642 mmHg 44%
    19:00 +15°C° 0 mm 1 mps 641 mmHg 53%
    20:00 +13°C° 0 mm 0 mps 641 mmHg 54%
    21:00 +13°C° 0 mm 0 mps 641 mmHg 54%
    22:00 +12°C° 0 mm 0 mps 641 mmHg 54%
    23:00 +12°C° 0 mm 0 mps 641 mmHg 54%
    Show more